Location: Cisewo
(53.3833°N, 14.9000°E)
Time: 13:30:10
(UTC+00:00)

DELFI C3 - Visible Passes

Search period start: 24 September 2021 00:00
Search period end: 04 October 2021 00:00
Orbit: 529 x 546 km, 97.4° (Epoch: 23 September)

Date Brightness Start Highest point End Pass type
(mag) Time Alt. Az. Time Alt. Az. Time Alt. Az.
24 Sep ? 17:48:49 10° SSE 17:52:42 73° ENE 17:56:37 10° N visible
24 Sep ? 19:25:36 10° WSW 19:27:42 14° W 19:29:49 10° NW visible
25 Sep ? 17:40:51 10° SSE 17:44:42 60° ENE 17:48:34 10° N visible
25 Sep ? 19:17:03 10° SW 19:19:36 17° W 19:22:09 10° NW visible
26 Sep ? 17:32:55 10° SE 17:36:42 50° ENE 17:40:29 10° N visible
26 Sep ? 19:08:37 10° SW 19:11:29 19° W 19:14:23 10° NW visible
27 Sep ? 17:25:01 10° SE 17:28:42 42° ENE 17:32:23 10° N visible
27 Sep ? 19:00:15 10° SW 19:03:23 23° W 19:06:32 10° NW visible
28 Sep ? 17:17:08 10° SE 17:20:42 35° ENE 17:24:17 10° N visible
28 Sep ? 18:51:56 10° SSW 18:55:17 27° W 18:58:39 10° NW visible
29 Sep ? 18:43:41 10° SSW 18:47:12 32° W 18:50:44 10° NNW visible
30 Sep ? 18:35:28 10° SSW 18:39:07 38° W 18:42:46 10° NNW visible
01 Oct ? 18:27:16 10° S 18:31:01 45° W 18:34:46 10° NNW visible
02 Oct ? 18:19:07 10° S 18:22:57 55° W 18:26:46 10° NNW visible
03 Oct ? 18:11:00 10° S 18:14:52 66° W 18:18:45 10° NNW visible
